• In Hungary
  • List of Countries
  • For 7 days
  • Water Temperature
  • Satellite Maps
  • Weather Map
  • News
  • Weather Widgets
  • user-avatar
    Login

    Hourly Weather Romny

    Today, 15 November, Thursday

    Time Temperature Precipitation Wind Pressure Humidity
    00:00 -2°C° 0.1 mm 3 mps 755 mmHg 86%
    01:00 -2°C° 0.1 mm 3 mps 755 mmHg 86%
    02:00 -2°C° 0 mm 3 mps 755 mmHg 85%
    03:00 -2°C° 0.1 mm 3 mps 755 mmHg 86%
    04:00 -2°C° 0.1 mm 3 mps 755 mmHg 87%
    05:00 -2°C° 0.1 mm 3 mps 755 mmHg 88%
    06:00 -3°C° 0.1 mm 4 mps 756 mmHg 88%
    07:00 -3°C° 0.1 mm 4 mps 756 mmHg 88%
    08:00 -3°C° 0 mm 4 mps 757 mmHg 87%
    09:00 -2°C° 0 mm 4 mps 757 mmHg 83%
    10:00 -1°C° 0 mm 4 mps 758 mmHg 79%
    11:00 -1°C° 0 mm 4 mps 758 mmHg 74%
    12:00 0°C° 0 mm 4 mps 758 mmHg 71%
    13:00 0°C° 0 mm 4 mps 759 mmHg 68%
    14:00 +1°C° 0 mm 3 mps 759 mmHg 63%
    15:00 0°C° 0 mm 3 mps 759 mmHg 64%
    16:00 -1°C° 0 mm 3 mps 760 mmHg 65%
    17:00 -3°C° 0 mm 4 mps 760 mmHg 66%
    18:00 -3°C° 0 mm 4 mps 760 mmHg 64%
    19:00 -3°C° 0 mm 4 mps 761 mmHg 62%
    20:00 -4°C° 0 mm 4 mps 761 mmHg 60%
    21:00 -4°C° 0 mm 4 mps 761 mmHg 58%
    22:00 -4°C° 0 mm 4 mps 761 mmHg 57%
    23:00 -5°C° 0 mm 4 mps 762 mmHg 55%

    Tomorrow, 16 November, Friday

    Time Temperature Precipitation Wind Pressure Humidity
    00:00 -5°C° 0 mm 4 mps 762 mmHg 53%
    01:00 -5°C° 0 mm 4 mps 762 mmHg 51%
    02:00 -5°C° 0 mm 4 mps 762 mmHg 49%
    03:00 -5°C° 0 mm 4 mps 762 mmHg 47%
    04:00 -5°C° 0 mm 4 mps 762 mmHg 45%
    05:00 -6°C° 0 mm 5 mps 762 mmHg 43%
    06:00 -6°C° 0 mm 5 mps 763 mmHg 43%
    07:00 -6°C° 0 mm 5 mps 763 mmHg 42%
    08:00 -6°C° 0 mm 5 mps 763 mmHg 42%
    09:00 -5°C° 0 mm 5 mps 763 mmHg 39%
    10:00 -3°C° 0 mm 6 mps 764 mmHg 36%
    11:00 -2°C° 0 mm 6 mps 764 mmHg 33%
    12:00 -2°C° 0 mm 6 mps 764 mmHg 32%
    13:00 0°C° 0 mm 5 mps 764 mmHg 30%
    14:00 0°C° 0 mm 5 mps 764 mmHg 29%
    15:00 -1°C° 0 mm 5 mps 764 mmHg 31%
    16:00 -2°C° 0 mm 5 mps 764 mmHg 33%
    17:00 -4°C° 0 mm 5 mps 764 mmHg 35%
    18:00 -4°C° 0 mm 5 mps 764 mmHg 35%
    19:00 -4°C° 0 mm 5 mps 764 mmHg 35%
    20:00 -5°C° 0 mm 5 mps 765 mmHg 35%
    21:00 -5°C° 0 mm 5 mps 765 mmHg 35%
    22:00 -4°C° 0 mm 4 mps 765 mmHg 36%
    23:00 -4°C° 0 mm 4 mps 765 mmHg 36%

    Day after tomorrow, 17 November, Saturday

    Time Temperature Precipitation Wind Pressure Humidity
    00:00 -4°C° 0 mm 4 mps 765 mmHg 36%
    01:00 -5°C° 0 mm 4 mps 765 mmHg 37%
    02:00 -5°C° 0 mm 4 mps 765 mmHg 37%
    03:00 -5°C° 0 mm 4 mps 765 mmHg 37%
    04:00 -5°C° 0 mm 4 mps 764 mmHg 37%
    05:00 -5°C° 0 mm 4 mps 764 mmHg 37%
    06:00 -5°C° 0 mm 4 mps 764 mmHg 37%
    07:00 -5°C° 0 mm 4 mps 764 mmHg 37%
    08:00 -5°C° 0 mm 4 mps 764 mmHg 37%
    09:00 -3°C° 0 mm 4 mps 764 mmHg 35%
    10:00 -2°C° 0 mm 4 mps 764 mmHg 33%
    11:00 0°C° 0 mm 3 mps 764 mmHg 31%
    12:00 +1°C° 0 mm 3 mps 763 mmHg 32%
    13:00 +1°C° 0 mm 3 mps 763 mmHg 33%
    14:00 +1°C° 0 mm 3 mps 762 mmHg 33%
    15:00 0°C° 0 mm 3 mps 762 mmHg 36%
    16:00 -1°C° 0 mm 3 mps 762 mmHg 38%
    17:00 -4°C° 0 mm 3 mps 761 mmHg 41%
    18:00 -3°C° 0 mm 2 mps 761 mmHg 40%
    19:00 -3°C° 0 mm 2 mps 761 mmHg 39%
    20:00 -1°C° 0 mm 1 mps 760 mmHg 38%
    21:00 -2°C° 0 mm 1 mps 760 mmHg 38%
    22:00 -2°C° 0 mm 1 mps 759 mmHg 37%
    23:00 -2°C° 0 mm 1 mps 759 mmHg 37%

    18 November, Sunday

    Time Temperature Precipitation Wind Pressure Humidity
    00:00 -2°C° 0 mm 1 mps 758 mmHg 37%
    01:00 -2°C° 0 mm 1 mps 758 mmHg 38%
    02:00 -2°C° 0 mm 1 mps 757 mmHg 38%
    03:00 -2°C° 0 mm 1 mps 757 mmHg 40%
    04:00 -3°C° 0 mm 1 mps 756 mmHg 41%
    05:00 -3°C° 0 mm 1 mps 755 mmHg 42%
    06:00 -3°C° 0 mm 1 mps 755 mmHg 43%
    07:00 -3°C° 0 mm 1 mps 754 mmHg 44%
    08:00 -2°C° 0 mm 1 mps 754 mmHg 45%
    09:00 -3°C° 0 mm 2 mps 754 mmHg 43%
    10:00 -2°C° 0 mm 2 mps 753 mmHg 40%
    11:00 -1°C° 0 mm 2 mps 753 mmHg 38%
    12:00 -1°C° 0 mm 2 mps 753 mmHg 39%
    13:00 +1°C° 0 mm 2 mps 752 mmHg 39%
    14:00 +1°C° 0 mm 2 mps 752 mmHg 40%
    15:00 -1°C° 0 mm 2 mps 752 mmHg 44%
    16:00 -2°C° 0 mm 2 mps 752 mmHg 49%
    17:00 -3°C° 0 mm 2 mps 752 mmHg 54%
    18:00 -2°C° 0 mm 1 mps 752 mmHg 55%
    19:00 -2°C° 0 mm 1 mps 752 mmHg 56%
    20:00 -2°C° 0 mm 1 mps 752 mmHg 58%
    21:00 -2°C° 0 mm 1 mps 752 mmHg 58%
    22:00 -2°C° 0 mm 1 mps 752 mmHg 58%
    23:00 -4°C° 0 mm 2 mps 752 mmHg 58%

    19 November, Monday

    Time Temperature Precipitation Wind Pressure Humidity
    00:00 -4°C° 0 mm 2 mps 753 mmHg 57%
    01:00 -4°C° 0 mm 2 mps 753 mmHg 56%
    02:00 -4°C° 0 mm 2 mps 753 mmHg 55%
    03:00 -4°C° 0 mm 2 mps 753 mmHg 54%
    04:00 -4°C° 0 mm 2 mps 753 mmHg 53%
    05:00 -4°C° 0 mm 2 mps 754 mmHg 51%
    06:00 -4°C° 0 mm 2 mps 754 mmHg 50%
    07:00 -4°C° 0 mm 2 mps 754 mmHg 49%
    08:00 -4°C° 0 mm 3 mps 754 mmHg 48%
    09:00 -2°C° 0 mm 3 mps 755 mmHg 46%
    10:00 -1°C° 0 mm 3 mps 755 mmHg 43%
    11:00 0°C° 0 mm 3 mps 756 mmHg 41%
    12:00 +1°C° 0 mm 3 mps 756 mmHg 44%
    13:00 +1°C° 0 mm 3 mps 756 mmHg 48%
    14:00 0°C° 0 mm 4 mps 756 mmHg 52%
    15:00 -1°C° 0 mm 4 mps 756 mmHg 62%
    16:00 -1°C° 0 mm 4 mps 756 mmHg 72%
    17:00 -2°C° 0 mm 4 mps 757 mmHg 82%
    18:00 -2°C° 0 mm 4 mps 757 mmHg 82%
    19:00 -2°C° 0 mm 4 mps 757 mmHg 82%
    20:00 -1°C° 0 mm 4 mps 757 mmHg 82%
    21:00 -1°C° 0 mm 4 mps 757 mmHg 80%
    22:00 -1°C° 0 mm 4 mps 757 mmHg 79%
    23:00 -1°C° 0 mm 4 mps 757 mmHg 77%

    20 November, Tuesday

    Time Temperature Precipitation Wind Pressure Humidity
    00:00 -2°C° 0 mm 4 mps 757 mmHg 76%
    01:00 -2°C° 0 mm 4 mps 757 mmHg 75%
    02:00 -3°C° 0 mm 4 mps 757 mmHg 74%
    03:00 -3°C° 0 mm 4 mps 757 mmHg 72%
    04:00 -3°C° 0 mm 4 mps 757 mmHg 70%
    05:00 -4°C° 0 mm 4 mps 757 mmHg 68%
    06:00 -4°C° 0 mm 4 mps 757 mmHg 64%
    07:00 -4°C° 0 mm 4 mps 757 mmHg 61%
    08:00 -3°C° 0 mm 4 mps 757 mmHg 58%
    09:00 -3°C° 0 mm 4 mps 757 mmHg 53%
    10:00 -2°C° 0 mm 4 mps 757 mmHg 48%
    11:00 -1°C° 0 mm 4 mps 757 mmHg 43%
    12:00 0°C° 0 mm 4 mps 757 mmHg 44%
    13:00 0°C° 0 mm 4 mps 757 mmHg 45%
    14:00 0°C° 0 mm 4 mps 757 mmHg 46%
    15:00 -1°C° 0 mm 4 mps 757 mmHg 49%
    16:00 -2°C° 0 mm 4 mps 756 mmHg 53%
    17:00 -2°C° 0 mm 3 mps 756 mmHg 57%
    18:00 -2°C° 0 mm 3 mps 756 mmHg 59%
    19:00 -2°C° 0 mm 3 mps 756 mmHg 61%
    20:00 -2°C° 0 mm 3 mps 756 mmHg 63%
    21:00 -4°C° 0 mm 3 mps 756 mmHg 66%
    22:00 -4°C° 0 mm 3 mps 756 mmHg 69%
    23:00 -4°C° 0 mm 3 mps 756 mmHg 72%
    Show more